Regional Weather Roundup
Issued by NWS

Home | Current Version | Previous Version | Text Only | Print | Product List | Glossary On
Versions: 1 2 3 4 5 6 7 8 9 10 11 12 13 14 15 16 17 18 19 20 21 22 23 24 25 26 27 28 29 30 31 32 33 34 35 36 37 38 39 40 41 42 43 44 45 46 47 48 49 50
000
ASUS43 KDTX 041801
RWRMI
MICHIGAN HOURLY REGIONAL WEATHER ROUNDUP
NATIONAL WEATHER SERVICE DETROIT/PONTIAC MI
200 PM EDT SAT JUL 04 2015

NOTE: "FAIR" INDICATES FEW OR NO CLOUDS BELOW 12,000 FEET WITH NO
SIGNIFICANT WEATHER AND/OR OBSTRUCTION TO VISIBILITY.

MIZ047>049-052>055-059>063-066>070-074>076-081>083-041900-
SOUTHEAST LOWER MICHIGAN

CITY           SKY/WX    TMP DP  RH WIND       PRES   REMARKS
ADRIAN         SUNNY     77  50  38 CALM      30.02R
6HR MIN TEMP:  59; 6HR MAX TEMP:  77;

ALMA           SUNNY     78  53  42 CALM      29.99S
ANN ARBOR      SUNNY     78  55  44 NE6       30.00S
BAD AXE        CLOUDY    78  50  38 SW9       29.98S
CARO           SUNNY     78  58  48 SW9       29.97F
DETROIT CITY   SUNNY     75  53  46 SW3       30.00R
6HR MIN TEMP:  62; 6HR MAX TEMP:  76;

DETROIT        SUNNY     77  51  40 VRB3      30.00S
6HR MIN TEMP:  62; 6HR MAX TEMP:  78;

FLINT          SUNNY     80  56  43 W8        30.00S
6HR MIN TEMP:  57; 6HR MAX TEMP:  80;

GROSSE ILE     SUNNY     75  48  38 CALM      29.99R
HILLSDALE      SUNNY     76  52  43 CALM      30.02S
HOWELL         SUNNY     77  51  40 SW3       30.00S
6HR MIN TEMP:  56; 6HR MAX TEMP:  77;


CITY           SKY/WX    TMP DP  RH WIND       PRES   REMARKS
JACKSON        SUNNY     77  58  51 VRB6      30.01S
6HR MIN TEMP:  57; 6HR MAX TEMP:  77;

LAMBERTVILLE   SUNNY     78  51  40 CALM      30.01S
6HR MIN TEMP:  60; 6HR MAX TEMP:  78;

LANSING        SUNNY     77  55  46 VRB6      30.00F
6HR MIN TEMP:  57; 6HR MAX TEMP:  77;

LAPEER         FAIR      76  51  40 CALM      30.00S
MASON          SUNNY     74  55  51 CALM      30.01S
MONROE         SUNNY     76  51  41 CALM      30.00R
MT. CLEMENS    MOSUNNY   76  57  52 SE3       29.98S
6HR MIN TEMP:  60; 6HR MAX TEMP:  76;

PONTIAC        MOSUNNY   78  55  44 CALM      29.99S
6HR MIN TEMP:  59; 6HR MAX TEMP:  78;

PORT HOPE        N/A     72  59  63 NW8       29.96S
6HR MIN TEMP:  62; 6HR MAX TEMP:  77;

PORT HURON     SUNNY     75  54  46 CALM      29.99S
TRI CITIES     SUNNY     80  54  40 W8        29.99S
6HR MIN TEMP:  60; 6HR MAX TEMP:  80;

MIDLAND        FAIR      81  56  42 W6        29.97S
TROY           SUNNY     78  50  37 W5        30.01S
SAGINAW HB     SUNNY     79  52  38 SW8       29.98S
$$
MIZ043>046-050>051-056>058-064>065-071>073-077>080-041900-
SOUTHWEST LOWER MICHIGAN

CITY           SKY/WX    TMP DP  RH WIND       PRES   REMARKS
BATTLE CREEK   SUNNY     77  54  44 SW6       30.02S
6HR MIN TEMP:  59; 6HR MAX TEMP:  77;

BENTON HARBOR  SUNNY     75  57  53 NW8       30.02R
6HR MIN TEMP:  55; 6HR MAX TEMP:  76;

BIG RAPIDS     MOSUNNY   80  56  43 SW6       29.98R
6HR MIN TEMP:  55; 6HR MAX TEMP:  80;

COLDWATER      SUNNY     75  55  50 CALM      30.02R
6HR MIN TEMP:  57; 6HR MAX TEMP:  76;

FREMONT        FAIR      79  56  44 W8        29.99R
HOLLAND        SUNNY     76  58  53 SW9       30.02R
6HR MIN TEMP:  57; 6HR MAX TEMP:  77;

GRAND RAPIDS   CLOUDY    79  55  43 VRB5      30.00S
6HR MIN TEMP:  58; 6HR MAX TEMP:  79;

IONIA          FAIR      77  52  41 SW3       29.99F
KALAMAZOO      SUNNY     77  54  44 VRB3      30.01F
6HR MIN TEMP:  59; 6HR MAX TEMP:  78;

LUDINGTON      SUNNY     71  61  71 W7        30.00R
6HR MIN TEMP:  64; 6HR MAX TEMP:  71;

MARSHALL       SUNNY     77  56  48 SW5       30.01S
MOUNT PLEASANT MOSUNNY   79  58  47 W6        29.98R
6HR MIN TEMP:  57; 6HR MAX TEMP:  80;

MUSKEGON       CLOUDY    73  59  61 SW8       30.01R
6HR MIN TEMP:  58; 6HR MAX TEMP:  74;

SOUTH HAVEN    SUNNY     74  56  54 NW6       30.02S
$$
MIZ016>042-041900-
NORTHERN LOWER MICHIGAN

CITY           SKY/WX    TMP DP  RH WIND       PRES   REMARKS
ALPENA         MOSUNNY   78  56  46 N7        29.96R
6HR MIN TEMP:  64; 6HR MAX TEMP:  82;

BEAVER ISLAND  MOSUNNY   72  57  59 W7        29.98F
6HR MIN TEMP:  58; 6HR MAX TEMP:  73;

BELLAIRE       SUNNY     78  57  49 CALM      29.97S
6HR MIN TEMP:  60; 6HR MAX TEMP:  78;

CADILLAC       PTSUNNY   78  60  53 NW5       29.98S
CHARLEVOIX     SUNNY     70  58  67 N3        30.01S
6HR MIN TEMP:  61; 6HR MAX TEMP:  70;

FRANKFORT      SUNNY     76  56  49 W5        29.99R
GAYLORD        MOSUNNY   77  54  44 MISG      29.98S
6HR MIN TEMP:  59; 6HR MAX TEMP:  78;

GRAYLING       MOSUNNY   78  57  48 W5        29.98S
6HR MIN TEMP:  59; 6HR MAX TEMP:  79;

HARBOR SPRINGS SUNNY     65  58  79 SW6       29.98S
HOUGHTON LAKE  PTSUNNY   77  59  53 CALM      29.98S
6HR MIN TEMP:  63; 6HR MAX TEMP:  78;

MANISTEE       SUNNY     73  57  56 W7        29.99S
OSCODA         CLOUDY    80  58  48 SE9       29.95S
PELLSTON       MOSUNNY   76  56  49 VRB7      29.97S
6HR MIN TEMP:  61; 6HR MAX TEMP:  77;

ROGERS CITY    SUNNY     67  60  79 N7        29.98S
TRAVERSE CITY  PTSUNNY   76  60  57 N7        29.96S
6HR MIN TEMP:  64; 6HR MAX TEMP:  77;

$$
MIZ007>008-015-041900-
EASTERN UPPER MICHIGAN

CITY           SKY/WX    TMP DP  RH WIND       PRES   REMARKS
KINROSS        MOSUNNY   70  57  64 NW10      29.97F
6HR MIN TEMP:  55; 6HR MAX TEMP:  70;

MACKINAC ISLAN MOSUNNY   67  60  76 SW3       29.97S
6HR MIN TEMP:  59; 6HR MAX TEMP:  68;

NEWBERRY       MOSUNNY   71  61  70 NW3       29.98S
6HR MIN TEMP:  53; 6HR MAX TEMP:  71;

S. S. MARIE    MOSUNNY   68  58  70 SW8       29.96S
6HR MIN TEMP:  55; 6HR MAX TEMP:  70;

$$
MIZ004>006-011>014-085-041900-
CENTRAL UPPER MICHIGAN

CITY           SKY/WX    TMP DP  RH WIND       PRES   REMARKS
MANISTIQUE     PTSUNNY   71  60  68 S6        29.98R
ESCANABA       MOSUNNY   73  59  60 S8        29.97R
6HR MIN TEMP:  61; 6HR MAX TEMP:  75;

MENOMINEE      SUNNY     73  61  64 SE8       29.98R
6HR MIN TEMP:  61; 6HR MAX TEMP:  73;

SAWYER-GWINN   SUNNY     68  57  68 E6        30.00S
$$
MIZ001>003-009>011-084-041900-
WESTERN UPPER MICHIGAN

CITY           SKY/WX    TMP DP  RH WIND       PRES   REMARKS
IRON MOUNTAIN  MOSUNNY   79  58  48 E6        29.97S
6HR MIN TEMP:  59; 6HR MAX TEMP:  79;

HOUGHTON       MOSUNNY   70  56  61 SE6       29.99S
6HR MIN TEMP:  58; 6HR MAX TEMP:  71;

COPPER HARBOR    N/A     56  50  80 CALM      29.99S
6HR MIN TEMP:  50; 6HR MAX TEMP:  57;

IRONWOOD       SUNNY     75  52  43 N3        29.94S
6HR MIN TEMP:  54; 6HR MAX TEMP:  77;

$$

ABBREVIATIONS USED IN REMARKS
   TC - TEMPERATURE IN CELSIUS
  WCI - WIND CHILL INDEX
   HX - HEAT INDEX
  VSB - VISIBILITY



USA.gov is the U.S. government's official web portal to all federal, state and local government web resources and services.